Lid_Strength_Index
5 5 4 4 4 4 4 4 4 3 3 3 3 4 4 4 4 4 4 4 4 4 4 4 4 4 4 3 3 3 3 3 4 3 3 3 3 3 3 3 3 3 3
5 4 4 4 4 5 4 4 4 4 3 3 3 3 3 3 4 4 4 4 4 4 4 4 4 3 3 3 3 3 3 3 3 4 3 4 4 4 4 4 5 4 4
5 4 3 4 4 5 5 5 4 4 4 3 2 3 3 3 3 4 4 4 4 4 4 4 3 3 3 3 3 3 3 3 3 3 3 5 6 6 6 6 6 7 7
5 4 3 3 4 4 4 5 4 4 4 4 3 2 3 3 3 3 3 3 3 3 3 3 3 3 2 3 3 3 3 3 3 3 3 3 5 7 7 8 9 9 9
4 4 4 3 3 4 4 4 4 4 4 3 3 3 3 3 3 3 3 2 3 3 3 3 3 3 5 4 3 3 3 3 3 3 4 3 7 10 10 10 10 12 13
4 4 4 4 4 3 3 4 4 3 3 3 3 3 4 3 7 8 5 3 3 3 3 3 3 6 6 10 11 12 11 4 3 4 4 7 10 12 12 12 13 13 14
3 3 3 4 4 4 4 3 3 3 3 3 3 3 3 3 8 7 7 3 3 4 4 4 7 8 10 12 13 13 14 14 15 9 8 13 14 13 13 14 15 15 17
3 3 3 3 3 3 4 4 4 3 3 3 3 3 3 4 8 9 9 5 4 4 3 4 5 8 10 12 14 15 15 15 15 15 15 16 16 15 15 15 16 18 17
7 6 6 4 3 3 3 3 3 4 4 3 3 4 4 4 9 9 9 6 7 9 9 8 6 9 11 11 14 15 16 15 14 14 14 15 15 15 15 16 17 17 18
11 11 10 9 7 5 3 3 3 3 4 4 5 5 7 5 9 10 9 5 9 14 14 14 13 12 13 14 15 16 18 18 18 18 18 18 18 18 18 19 18 19 19
13 13 13 13 12 10 9 5 4 4 7 12 15 15 15 15 14 13 12 7 11 15 15 16 15 15 15 15 15 17 18 18 19 19 20 20 21 21 20 20 20 20 21
14 14 14 14 13 13 13 13 13 13 15 15 16 16 16 16 15 15 15 16 15 16 17 16 16 15 15 16 17 17 18 19 20 21 22 23 23 22 21 21 21 21 21
15 15 15 14 14 14 14 14 14 14 16 17 18 18 18 17 16 15 15 15 16 17 17 17 17 17 18 18 18 19 19 21 22 23 23 23 23 22 22 22 21 21 21
16 16 15 15 15 15 15 14 15 16 17 17 18 18 18 18 17 17 17 18 18 20 20 20 21 21 21 21 21 21 21 21 23 23 23 23 23 23 24 23 23 22 22
16 15 15 15 15 16 16 16 16 16 16 17 17 17 18 18 18 17 18 19 19 19 20 21 21 22 23 23 23 22 23 23 23 23 24 24 24 23 24 23 23 24 25
16 17 16 16 16 16 17 17 15 15 15 15 15 16 16 15 15 16 16 16 18 19 20 22 23 23 24 24 24 24 24 24 24 24 24 24 24 24 24 24 25 25 25
19 18 18 18 18 18 17 18 19 17 15 15 15 15 16 16 16 17 17 18 18 19 22 22 23 23 23 23 23 24 24 24 23 24 24 25 24 25 25 25 25 25 24
20 19 19 19 19 20 20 20 21 22 23 22 17 17 16 16 17 17 18 20 22 22 22 23 23 23 23 23 23 24 24 24 25 26 27 27 26 25 26 26 25 26 25
18 18 19 19 19 19 19 19 20 21 22 22 21 21 19 17 18 18 19 22 23 23 24 24 24 24 24 25 25 26 27 27 27 28 28 28 29 27 27 27 27 28 27
18 18 19 19 20 20 20 21 22 23 23 24 24 23 22 23 24 25 24 24 24 24 24 25 25 25 25 26 26 27 27 28 28 28 32 31 31 28 29 29 29 28 27
18 19 19 19 20 20 21 21 22 23 24 25 25 25 25 25 26 26 26 27 26 26 26 26 26 26 26 27 26 28 29 30 29 29 29 30 33 30 29 28 28 27 26
19 19 19 20 20 21 21 22 23 23 24 25 25 25 26 26 26 27 27 28 27 27 26 26 27 27 27 27 28 31 32 33 31 30 30 30 30 29 29 29 29 29 28
19 20 20 21 21 22 23 23 24 25 25 25 25 26 27 27 28 28 29 29 28 28 27 27 27 27 28 31 30 29 29 29 30 31 31 31 29 29 31 29 29 29 28
20 21 21 22 23 23 24 25 25 25 26 27 27 27 28 29 30 29 29 29 30 30 29 29 28 28 28 32 32 29 28 31 29 30 32 31 29 28 29 28 27 28 27
22 23 24 24 25 25 25 25 26 26 26 27 27 28 28 28 29 31 31 29 30 30 30 31 30 29 30 29 29 28 31 32 32 31 31 31 30 31 29 28 28 26 26
23 24 24 25 25 26 27 27 27 27 28 28 28 29 29 29 30 31 30 30 30 30 29 30 29 30 29 28 28 29 31 31 32 32 32 28 29 28 28 27 27 26 25